• în România
  • Lista ţărilor
  • Pe 7 zile
  • Temperatura apei
  • Hartă satelitară
  • Meteo pe hartă
  • Widget-uri
  • user-avatar
    Intrare

    Meteo pe oră la Tirana

    Astăzi, 19 Noiembrie, Duminică

    Timp Temperatura Precipitaţii Vânt Presiune Umiditate
    00:00 +12°C° 0 mm 3 m/s 751 mmHg 77%
    01:00 +12°C° 0 mm 3 m/s 751 mmHg 79%
    02:00 +12°C° 0 mm 3 m/s 750 mmHg 80%
    03:00 +11°C° 0 mm 3 m/s 750 mmHg 81%
    04:00 +12°C° 0 mm 2 m/s 750 mmHg 82%
    05:00 +12°C° 0 mm 2 m/s 750 mmHg 82%
    06:00 +12°C° 0 mm 2 m/s 751 mmHg 82%
    07:00 +12°C° 0 mm 2 m/s 750 mmHg 82%
    08:00 +13°C° 0 mm 2 m/s 750 mmHg 77%
    09:00 +15°C° 0 mm 1 m/s 751 mmHg 71%
    10:00 +16°C° 0 mm 1 m/s 751 mmHg 66%
    11:00 +16°C° 0 mm 2 m/s 750 mmHg 64%
    12:00 +17°C° 0 mm 2 m/s 750 mmHg 62%
    13:00 +17°C° 0 mm 3 m/s 750 mmHg 62%
    14:00 +16°C° 0,2 mm 3 m/s 750 mmHg 67%
    15:00 +14°C° 0,2 mm 3 m/s 750 mmHg 73%
    16:00 +13°C° 0,2 mm 3 m/s 749 mmHg 78%
    17:00 +13°C° 0,3 mm 3 m/s 750 mmHg 81%
    18:00 +12°C° 0,3 mm 4 m/s 750 mmHg 84%
    19:00 +12°C° 0,3 mm 4 m/s 750 mmHg 87%
    20:00 +11°C° 0,6 mm 4 m/s 750 mmHg 88%
    21:00 +11°C° 0,6 mm 4 m/s 750 mmHg 89%
    22:00 +10°C° 0,6 mm 5 m/s 750 mmHg 90%
    23:00 +9°C° 0,9 mm 5 m/s 750 mmHg 91%

    Mâine, 20 Noiembrie, Luni

    Timp Temperatura Precipitaţii Vânt Presiune Umiditate
    00:00 +9°C° 0,9 mm 5 m/s 751 mmHg 92%
    01:00 +8°C° 0,9 mm 5 m/s 751 mmHg 93%
    02:00 +8°C° 1 mm 6 m/s 751 mmHg 91%
    03:00 +8°C° 1 mm 6 m/s 751 mmHg 89%
    04:00 +8°C° 1 mm 6 m/s 751 mmHg 87%
    05:00 +7°C° 0,4 mm 6 m/s 752 mmHg 86%
    06:00 +7°C° 0,4 mm 6 m/s 752 mmHg 84%
    07:00 +5°C° 0,4 mm 6 m/s 752 mmHg 83%
    08:00 +7°C° 0 mm 6 m/s 753 mmHg 75%
    09:00 +9°C° 0 mm 6 m/s 754 mmHg 67%
    10:00 +10°C° 0 mm 6 m/s 754 mmHg 59%
    11:00 +10°C° 0 mm 6 m/s 755 mmHg 55%
    12:00 +10°C° 0 mm 6 m/s 755 mmHg 51%
    13:00 +11°C° 0 mm 6 m/s 755 mmHg 47%
    14:00 +10°C° 0 mm 6 m/s 755 mmHg 51%
    15:00 +9°C° 0 mm 6 m/s 756 mmHg 54%
    16:00 +8°C° 0 mm 6 m/s 756 mmHg 58%
    17:00 +7°C° 0 mm 5 m/s 757 mmHg 60%
    18:00 +6°C° 0 mm 5 m/s 757 mmHg 62%
    19:00 +5°C° 0 mm 5 m/s 757 mmHg 64%
    20:00 +5°C° 0 mm 4 m/s 758 mmHg 64%
    21:00 +5°C° 0 mm 4 m/s 758 mmHg 63%
    22:00 +4°C° 0 mm 3 m/s 759 mmHg 63%
    23:00 +4°C° 0 mm 3 m/s 759 mmHg 63%

    Poimâine, 21 Noiembrie, Marţi

    Timp Temperatura Precipitaţii Vânt Presiune Umiditate
    00:00 +4°C° 0 mm 3 m/s 759 mmHg 62%
    01:00 +4°C° 0 mm 3 m/s 759 mmHg 62%
    02:00 +5°C° 0 mm 2 m/s 759 mmHg 60%
    03:00 +5°C° 0 mm 2 m/s 759 mmHg 59%
    04:00 +5°C° 0 mm 2 m/s 758 mmHg 57%
    05:00 +5°C° 0 mm 2 m/s 758 mmHg 55%
    06:00 +5°C° 0 mm 2 m/s 759 mmHg 54%
    07:00 +5°C° 0 mm 2 m/s 759 mmHg 52%
    08:00 +7°C° 0 mm 2 m/s 759 mmHg 47%
    09:00 +9°C° 0 mm 2 m/s 759 mmHg 42%
    10:00 +12°C° 0 mm 2 m/s 759 mmHg 37%
    11:00 +12°C° 0 mm 2 m/s 758 mmHg 37%
    12:00 +13°C° 0 mm 1 m/s 758 mmHg 38%
    13:00 +13°C° 0 mm 1 m/s 758 mmHg 38%
    14:00 +12°C° 0 mm 1 m/s 758 mmHg 43%
    15:00 +11°C° 0 mm 1 m/s 757 mmHg 48%
    16:00 +10°C° 0 mm 1 m/s 757 mmHg 53%
    17:00 +9°C° 0 mm 1 m/s 758 mmHg 54%
    18:00 +8°C° 0 mm 2 m/s 758 mmHg 55%
    19:00 +7°C° 0 mm 2 m/s 758 mmHg 56%
    20:00 +7°C° 0 mm 2 m/s 758 mmHg 57%
    21:00 +7°C° 0 mm 2 m/s 759 mmHg 58%
    22:00 +7°C° 0 mm 2 m/s 759 mmHg 59%
    23:00 +7°C° 0 mm 2 m/s 759 mmHg 60%

    22 Noiembrie, Miercuri

    Timp Temperatura Precipitaţii Vânt Presiune Umiditate
    00:00 +7°C° 0 mm 2 m/s 759 mmHg 61%
    01:00 +7°C° 0 mm 2 m/s 759 mmHg 62%
    02:00 +7°C° 0 mm 2 m/s 758 mmHg 63%
    03:00 +7°C° 0 mm 2 m/s 758 mmHg 64%
    04:00 +7°C° 0 mm 2 m/s 758 mmHg 65%
    05:00 +7°C° 0 mm 2 m/s 758 mmHg 66%
    06:00 +7°C° 0 mm 2 m/s 758 mmHg 67%
    07:00 +7°C° 0 mm 2 m/s 759 mmHg 68%
    08:00 +9°C° 0 mm 2 m/s 759 mmHg 64%
    09:00 +12°C° 0 mm 1 m/s 759 mmHg 59%
    10:00 +14°C° 0 mm 1 m/s 759 mmHg 55%
    11:00 +14°C° 0 mm 1 m/s 758 mmHg 55%
    12:00 +15°C° 0 mm 1 m/s 758 mmHg 55%
    13:00 +16°C° 0 mm 2 m/s 758 mmHg 55%
    14:00 +15°C° 0 mm 2 m/s 758 mmHg 62%
    15:00 +13°C° 0 mm 2 m/s 758 mmHg 69%
    16:00 +12°C° 0 mm 2 m/s 758 mmHg 76%
    17:00 +12°C° 0 mm 1 m/s 758 mmHg 77%
    18:00 +11°C° 0 mm 1 m/s 759 mmHg 78%
    19:00 +11°C° 0 mm 1 m/s 759 mmHg 79%
    20:00 +10°C° 0 mm 1 m/s 759 mmHg 78%
    21:00 +10°C° 0 mm 1 m/s 759 mmHg 77%
    22:00 +10°C° 0 mm 1 m/s 760 mmHg 75%
    23:00 +10°C° 0 mm 1 m/s 759 mmHg 73%

    23 Noiembrie, Joi

    Timp Temperatura Precipitaţii Vânt Presiune Umiditate
    00:00 +10°C° 0 mm 1 m/s 759 mmHg 72%
    01:00 +10°C° 0 mm 1 m/s 759 mmHg 70%
    02:00 +10°C° 0 mm 1 m/s 759 mmHg 69%
    03:00 +10°C° 0 mm 1 m/s 759 mmHg 68%
    04:00 +10°C° 0 mm 1 m/s 759 mmHg 66%
    05:00 +10°C° 0 mm 1 m/s 760 mmHg 65%
    06:00 +10°C° 0 mm 1 m/s 760 mmHg 64%
    07:00 +10°C° 0 mm 1 m/s 760 mmHg 63%
    08:00 +12°C° 0 mm 1 m/s 760 mmHg 57%
    09:00 +15°C° 0 mm 1 m/s 760 mmHg 52%
    10:00 +18°C° 0 mm 1 m/s 760 mmHg 47%
    11:00 +17°C° 0 mm 2 m/s 760 mmHg 46%
    12:00 +18°C° 0 mm 2 m/s 760 mmHg 46%
    13:00 +19°C° 0 mm 2 m/s 760 mmHg 46%
    14:00 +17°C° 0 mm 2 m/s 760 mmHg 53%
    15:00 +16°C° 0 mm 2 m/s 760 mmHg 61%
    16:00 +13°C° 0 mm 3 m/s 760 mmHg 69%
    17:00 +14°C° 0 mm 2 m/s 760 mmHg 70%
    18:00 +13°C° 0 mm 2 m/s 760 mmHg 71%
    19:00 +12°C° 0 mm 2 m/s 761 mmHg 72%
    20:00 +12°C° 0 mm 2 m/s 761 mmHg 71%
    21:00 +12°C° 0 mm 2 m/s 761 mmHg 70%
    22:00 +12°C° 0 mm 2 m/s 761 mmHg 69%
    23:00 +12°C° 0 mm 1 m/s 761 mmHg 69%

    24 Noiembrie, Vineri

    Timp Temperatura Precipitaţii Vânt Presiune Umiditate
    00:00 +12°C° 0 mm 1 m/s 761 mmHg 68%
    01:00 +11°C° 0 mm 1 m/s 761 mmHg 67%
    02:00 +11°C° 0 mm 1 m/s 761 mmHg 66%
    03:00 +11°C° 0 mm 1 m/s 761 mmHg 66%
    04:00 +11°C° 0 mm 1 m/s 761 mmHg 65%
    05:00 +11°C° 0 mm 1 m/s 761 mmHg 64%
    06:00 +11°C° 0 mm 1 m/s 761 mmHg 63%
    07:00 +11°C° 0 mm 1 m/s 761 mmHg 62%
    08:00 +13°C° 0 mm 1 m/s 761 mmHg 57%
    09:00 +15°C° 0 mm 1 m/s 761 mmHg 51%
    10:00 +16°C° 0 mm 0 m/s 761 mmHg 45%
    11:00 +18°C° 0 mm 1 m/s 761 mmHg 45%
    12:00 +19°C° 0 mm 1 m/s 761 mmHg 45%
    13:00 +18°C° 0 mm 2 m/s 760 mmHg 45%
    14:00 +17°C° 0 mm 2 m/s 760 mmHg 53%
    15:00 +15°C° 0 mm 2 m/s 760 mmHg 60%
    16:00 +14°C° 0 mm 2 m/s 760 mmHg 68%
    17:00 +13°C° 0 mm 2 m/s 761 mmHg 69%
    18:00 +13°C° 0 mm 1 m/s 761 mmHg 71%
    19:00 +12°C° 0 mm 1 m/s 761 mmHg 73%
    20:00 +12°C° 0 mm 1 m/s 761 mmHg 71%
    21:00 +12°C° 0 mm 1 m/s 761 mmHg 69%
    22:00 +11°C° 0 mm 1 m/s 761 mmHg 68%
    23:00 +11°C° 0 mm 1 m/s 761 mmHg 66%
    Arată mai mult